Regional Weather Roundup
Issued by NWS

Current Version | Previous Version | Text Only | Print | Product List | Glossary On
Versions: 1 2 3 4 5 6 7 8 9 10 11 12 13 14 15 16 17 18 19 20 21 22 23 24 25 26 27 28 29 30 31 32 33 34 35 36 37 38 39 40 41 42 43 44 45 46 47 48 49 50
000
ASUS42 KFFC 181210
RWRGA
WEATHER ROUNDUP FOR GEORGIA
NATIONAL WEATHER SERVICE PEACHTREE CITY GA
800 AM EDT WED OCT 18 2017

NOTE: "FAIR" INDICATES FEW OR NO CLOUDS BELOW 12,000 FEET WITH NO
SIGNIFICANT WEATHER AND/OR OBSTRUCTIONS TO VISIBILITY.

* = USE WITH CAUTION. THE STATIONS MARKED WITH AN ASTERISK MAY NOT
REPORT WEATHER SUCH AS PRECIPITATION, FOG, OR THUNDER AND ARE NOT
QUALITY CONTROLLED BY NWS.

THE REMARK "TC" DENOTES TEMPERATURE READING IN DEGREES CELSIUS.

GAZ001>058-181300-
NORTH GEORGIA

CITY           SKY/WX    TMP DP  RH WIND       PRES   REMARKS
ATLANTA        PTCLDY    49  42  77 E9        30.32R
6HR MIN TEMP:  48; 6HR MAX TEMP:  52;

ATHENS         CLEAR     42  41  96 NE3       30.34R
6HR MIN TEMP:  42; 6HR MAX TEMP:  46;

CHAMBLEE       CLEAR     45  41  86 CALM      30.33R
6HR MIN TEMP:  41; 6HR MAX TEMP:  48;

PEACHTREE CITY CLEAR     40  39  97 CALM      30.33R
6HR MIN TEMP:  40; 6HR MAX TEMP:  44;

ROME           CLEAR     41  41 100 CALM      30.33R
6HR MIN TEMP:  41; 6HR MAX TEMP:  47;

WEST ATLANTA   CLEAR     43  43 100 CALM      30.33R
6HR MIN TEMP:  42; 6HR MAX TEMP:  47;

GAINESVILLE    CLEAR     45  41  86 NE5       30.35R
6HR MIN TEMP:  45; 6HR MAX TEMP:  49;

CARTERSVILLE   CLEAR     40  40 100 CALM      30.34R
6HR MIN TEMP:  39; 6HR MAX TEMP:  44;



CITY           SKY/WX    TMP DP  RH WIND       PRES   REMARKS
DALTON*        FOG       39  39 100 CALM      30.35R VSB 1/2
LAWRENCEVILLE* CLEAR     46  42  86 NE3       30.34R
MARIETTA       PTCLDY    45  41  86 NE2       30.32R
KENNESAW*      CLEAR     46  43  89 E3        30.34R
CANTON*        CLEAR     45  43  93 CALM      30.34S
$$

GAZ059>098-102>109-181300-
CENTRAL GEORGIA

CITY           SKY/WX    TMP DP  RH WIND       PRES   REMARKS
AUGUSTA-BUSH   CLEAR     44  40  85 N6        30.33R
6HR MIN TEMP:  40; 6HR MAX TEMP:  47;

AUGUSTA-DANIEL CLEAR     51  41  68 NE8       30.33R
6HR MIN TEMP:  49; 6HR MAX TEMP:  56;

COLUMBUS       CLEAR     53  40  61 E8        30.29R
6HR MIN TEMP:  50; 6HR MAX TEMP:  55;

MACON          CLEAR     43  41  93 NE5       30.30S
6HR MIN TEMP:  40; 6HR MAX TEMP:  46;

ROBINS AFB     CLEAR     44  42  93 CALM      30.29S


CITY           SKY/WX    TMP DP  RH WIND       PRES   REMARKS
LAGRANGE*      CLEAR     41  41  98 CALM      30.32R
SYLVANIA*      CLEAR     48  45  90 NE7       30.30S
MILLEDGEVILLE* CLEAR     46  45  93 CALM      30.32S
$$

GAZ099>101-110>166-181300-
SOUTH GEORGIA

CITY           SKY/WX    TMP DP  RH WIND       PRES   REMARKS
SAVANNAH       PTCLDY    54  46  74 NE9       30.27R
6HR MIN TEMP:  53; 6HR MAX TEMP:  56;

VALDOSTA       CLEAR     54  46  74 NE8       30.22R
6HR MIN TEMP:  53; 6HR MAX TEMP:  55;

ALMA           PTCLDY    54  43  66 VRB5      30.24S
6HR MIN TEMP:  53; 6HR MAX TEMP:  55;

ST SIMONS      CLEAR     63  57  81 N16       30.20R
6HR MIN TEMP:  61; 6HR MAX TEMP:  63;

FT STEWART     CLEAR     54  44  68 N9        30.24R
ALBANY         PTCLDY    52  44  74 NE8       30.27R
HUNTER AFB     CLEAR     54  46  74 NE9       30.23R
MOODY AFB      CLEAR     53  44  71 NE7       30.22R
BRUNSWICK      CLEAR     59  50  72 N10       30.22R


CITY           SKY/WX    TMP DP  RH WIND       PRES   REMARKS
BAINBRIDGE*    CLEAR     52  46  82 NE5       30.23R
MOULTRIE*      PTCLDY    54  45  71 NE5       30.24R
VIDALIA*       CLEAR     48  45  87 N6        30.28R
WAYCROSS*      CLEAR     54  43  66 NE6       30.24R
DOUGLAS*       CLEAR     52  41  66 NE10      30.26R
$$




USA.gov is the U.S. government's official web portal to all federal, state and local government web resources and services.